DW1482 Weather Reports


Display with metric or nautical units.
time (UTC)temp
F
wind
direction
speed
MPH
gust
MPH
rain 1hr
in
rain 24hr
in
rain mn
in
humidity
%
barometer
mb
20260903013007 75 72 3.0 9.0 0.00 0.00 0.00 66 1009.0
20260903011521 75 76 3.0 10.0 0.00 0.00 0.00 65 1009.1
20260903010019 76 30 2.0 10.0 0.00 0.00 0.00 64 1009.1
20260903004538 77 74 3.0 10.0 0.00 0.00 0.00 62 1009.1
20260903003009 78 77 6.0 14.0 0.00 0.00 0.00 61 1009.0
20260903001521 79 61 5.0 14.0 0.00 0.00 0.00 60 1009.2
20260903000039 79 71 9.0 14.0 0.00 0.00 0.00 59 1008.9
20260902234534 80 59 7.0 15.0 0.00 0.00 0.00 58 1009.1
20260902233011 81 77 7.0 13.0 0.00 0.00 0.00 56 1009.1
20260902231518 82 91 5.0 16.0 0.00 0.00 0.00 55 1009.1
20260902230026 82 98 8.0 16.0 0.00 0.00 0.00 52 1009.1
20260902224530 83 73 6.0 15.0 0.00 0.00 0.00 51 1009.1
20260902223011 83 125 9.0 17.0 0.00 0.00 0.00 50 1009.3
20260902221517 83 88 7.0 18.0 0.00 0.00 0.00 51 1009.3
20260902220025 84 92 4.0 15.0 0.00 0.00 0.00 51 1009.3
20260902214604 84 88 4.0 12.0 0.00 0.00 0.00 52 1009.5
20260902213016 83 127 9.0 17.0 0.00 0.00 0.00 51 1009.5
20260902211518 83 58 4.0 18.0 0.00 0.00 0.00 52 1009.8
20260902210027 83 89 5.0 15.0 0.00 0.00 0.00 50 1010.0
20260902204532 84 138 6.0 10.0 0.00 0.00 0.00 51 1010.1
20260902203015 85 110 3.0 11.0 0.00 0.00 0.00 50 1010.2
20260902201532 83 78 7.0 15.0 0.00 0.00 0.00 51 1010.4
20260902200025 83 114 5.0 13.0 0.00 0.00 0.00 52 1010.8
20260902194539 83 53 2.0 12.0 0.00 0.00 0.00 52 1011.0
20260902193034 82 101 5.0 13.0 0.00 0.00 0.00 55 1010.8
20260902191526 81 90 7.0 14.0 0.00 0.00 0.00 55 1011.0
20260902190029 81 64 7.0 15.0 0.00 0.00 0.00 55 1011.1
20260902184534 81 76 7.0 13.0 0.00 0.00 0.00 57 1011.3
20260902183033 81 75 5.0 14.0 0.00 0.00 0.00 56 1011.4
20260902181524 81 72 3.0 12.0 0.00 0.00 0.00 55 1011.6
20260902180033 79 69 6.0 12.0 0.00 0.00 0.00 58 1011.8
20260902174543 81 69 3.0 11.0 0.00 0.00 0.00 56 1011.9
20260902173035 79 93 7.0 13.0 0.00 0.00 0.00 55 1011.9
20260902171528 78 79 4.0 13.0 0.00 0.00 0.00 56 1012.0
20260902170035 78 115 2.0 9.0 0.00 0.00 0.00 59 1012.1
20260902164522 77 82 1.0 11.0 0.00 0.00 0.00 61 1012.0
20260902163024 77 117 2.0 12.0 0.00 0.00 0.00 62 1012.0
20260902161520 76 136 3.0 9.0 0.00 0.00 0.00 64 1011.9
20260902160010 75 84 3.0 11.0 0.00 0.00 0.00 65 1012.1
20260902154520 76 62 4.0 10.0 0.00 0.00 0.00 63 1012.0
20260902153030 74 146 1.0 8.0 0.00 0.00 0.00 64 1012.0
20260902151504 75 40 3.0 9.0 0.00 0.00 0.00 64 1012.0
20260902150018 74 83 2.0 7.0 0.00 0.00 0.00 66 1011.8
20260902144515 73 97 2.0 9.0 0.00 0.00 0.00 69 1012.0
20260902143028 72 52 2.0 6.0 0.00 0.00 0.00 70 1012.3
20260902141508 71 128 1.0 7.0 0.00 0.00 0.00 71 1012.7
20260902140011 70 134 0.0 7.0 0.00 0.00 0.00 74 1012.4
20260902134516 68 86 0.0 0.0 0.00 0.00 0.00 78 1012.4
20260902133040 66 80 0.0 3.0 0.00 0.00 0.00 81 1012.8
20260902131529 66 80 0.0 0.0 0.00 0.00 0.00 82 1012.9
20260902130032 65 80 0.0 0.0 0.00 0.00 0.00 83 1012.8
20260902124523 65 80 0.0 2.0 0.00 0.00 0.00 82 1012.7
20260902123025 65 107 1.0 4.0 0.00 0.00 0.00 83 1012.8
20260902121532 65 127 0.0 2.0 0.00 0.00 0.00 83 1012.2
20260902120034 65 108 0.0 4.0 0.00 0.00 0.00 84 1012.3
20260902114530 65 108 0.0 3.0 0.00 0.00 0.00 84 1012.4
20260902113026 65 114 1.0 4.0 0.00 0.00 0.00 84 1012.5
20260902111531 65 123 0.0 0.0 0.00 0.00 0.00 83 1012.8
20260902110030 66 123 0.0 0.0 0.00 0.00 0.00 82 1012.6
20260902104524 66 123 0.0 2.0 0.00 0.00 0.00 80 1013.2
20260902103030 66 101 0.0 1.0 0.00 0.00 0.00 79 1013.0
20260902101517 66 103 1.0 6.0 0.00 0.00 0.00 78 1012.8
20260902100019 66 63 0.0 4.0 0.00 0.00 0.00 78 1012.7
20260902094528 66 85 2.0 6.0 0.00 0.00 0.00 78 1012.2
20260902093033 67 58 0.0 7.0 0.00 0.00 0.00 75 1012.2
20260902091513 66 78 2.0 7.0 0.00 0.00 0.00 75 1012.2
20260902090023 66 74 0.0 4.0 0.00 0.00 0.00 77 1012.3
20260902084527 66 73 1.0 4.0 0.00 0.00 0.00 78 1012.3
20260902083043 67 78 0.0 3.0 0.00 0.00 0.00 77 1012.3
20260902081521 67 78 0.0 4.0 0.00 0.00 0.00 76 1012.2
20260902080027 67 76 0.0 0.0 0.00 0.00 0.00 77 1012.3
20260902074531 67 71 0.0 2.0 0.00 0.00 0.00 78 1012.3
20260902073007 66 71 0.0 2.0 0.00 0.00 0.00 80 1012.5
20260902071503 66 71 2.0 7.0 0.00 0.00 0.00 81 1012.7
20260902070006 66 85 0.0 2.0 0.00 0.00 0.00 82 1012.7
20260902064509 67 85 0.0 2.0 0.00 0.00 0.00 81 1012.7
20260902063008 67 85 0.0 3.0 0.00 0.00 0.00 82 1012.4
20260902061503 67 86 0.0 2.0 0.00 0.00 0.00 83 1012.6
20260902060004 67 86 0.0 3.0 0.00 0.00 0.00 83 1012.7
20260902054508 67 86 0.0 3.0 0.00 0.00 0.00 83 1013.0
20260902053012 68 86 0.0 6.0 0.00 0.00 0.00 82 1012.8
20260902051503 68 60 0.0 0.0 0.00 0.00 0.00 82 1012.5
20260902050008 68 60 0.0 0.0 0.00 0.00 0.00 82 1013.0
20260902044519 69 74 0.0 0.0 0.00 0.00 0.00 81 1013.0
20260902043012 69 74 0.0 0.0 0.00 0.00 0.00 80 1013.0
20260902041514 70 74 0.0 0.0 0.00 0.00 0.00 77 1012.6
20260902040004 71 71 0.0 0.0 0.00 0.00 0.00 73 1012.5
20260902034508 71 64 1.0 7.0 0.00 0.00 0.00 73 1012.5
20260902033017 71 126 0.0 0.0 0.00 0.00 0.00 74 1013.1
20260902031532 71 72 3.0 8.0 0.00 0.00 0.00 74 1013.0
20260902030003 71 85 0.0 6.0 0.00 0.00 0.00 74 1013.1
20260902024512 71 81 2.0 5.0 0.00 0.00 0.00 74 1012.9
20260902023029 71 80 0.0 5.0 0.00 0.00 0.00 75 1012.9
20260902021517 71 66 2.0 5.0 0.00 0.00 0.00 77 1012.4
20260902020017 71 49 0.0 4.0 0.00 0.00 0.00 77 1012.5
20260902014519 71 48 0.0 3.0 0.00 0.00 0.00 78 1012.7